#timestamp,LO_Frequency,Hit,StdDev 
1505970015.1,286046999.2,N
1505970035.9,286046995.8,N
1505970055.7,286046996.8,N
1505970075.5,286046996.8,N
1505970095.4,286046995.7,N
1505970115.2,286046996.3,N
1505970135.1,286046993.7,N
1505970136.0,286046993.7,N
1505970155.8,286046994.1,N
1505970175.6,286046993.5,N
1505970195.5,286046995.0,N
1505970215.3,286046996.9,N
1505970235.1,286046999.5,N
1505970255.9,286047000.4,N
1505970275.7,286047001.6,N
1505970295.6,286047002.8,N
1505970315.4,286046998.1,N
1505970335.2,286047001.1,N
1505970355.1,286046999.2,N
1505970356.0,286046999.2,N
1505970375.8,286046999.2,N
1505970395.6,286046999.4,N
1505970415.5,286046996.1,N
1505970435.3,286046994.1,N
1505970455.2,286046994.2,N
1505970475.9,286046992.0,N
1505970495.7,286046991.7,N
1505970515.6,286046996.2,N
1505970535.4,286046995.0,N
1505970555.2,286046999.0,N
1505970575.1,286046997.8,N
1505970576.0,286046997.8,N
1505970595.8,286046997.6,N
1505970615.7,286046996.9,N
1505970635.5,286046996.8,N
1505970655.3,286046996.9,N
1505970675.2,286046996.9,N
1505970695.0,286046999.4,N
1505970695.9,286046999.4,N
1505970715.8,286047000.3,N
1505970735.6,286047000.4,N
1505970755.4,286047002.3,N
1505970775.3,286046999.7,N
1505970795.1,286047001.5,N
1505970815.8,286047002.1,N
1505970835.7,286047001.5,N
1505970855.5,286047004.1,N
1505970875.4,286047004.8,N
1505970895.2,286047004.9,N
1505970915.0,286047005.6,N
1505970915.9,286047005.6,N
1505970935.8,286047000.1,N
1505970955.6,286046998.1,N
1505970975.4,286046998.2,N
1505970995.3,286046999.1,N
1505971015.1,286046995.8,N
1505971035.9,286046997.8,N
1505971055.7,286046997.3,N
1505971075.5,286046997.7,N
1505971095.4,286046998.1,N
1505971115.2,286046999.7,N
1505971135.0,286047003.8,N
1505971136.0,286047003.8,N
1505971155.8,286046998.7,N
1505971175.6,286047001.1,N
1505971195.5,286047000.0,N
1505971215.3,286047002.1,N
1505971235.1,286047003.7,N
1505971255.9,286047007.3,N
1505971275.7,286047006.7,N
1505971295.6,286047008.4,N
1505971315.4,286047007.6,N
1505971335.2,286047007.5,N
1505971355.1,286047003.3,N
1505971356.0,286047003.3,N
1505971375.8,286047005.3,N
1505971395.6,286047003.1,N
1505971415.5,286047000.0,N
1505971435.3,286046998.9,N
1505971455.2,286047000.9,N
1505971475.9,286047001.1,N
1505971495.7,286047001.1,N
1505971515.6,286047001.9,N
1505971535.4,286047003.2,N
1505971555.3,286047004.1,N
1505971575.1,286047002.2,N
1505971576.0,286047002.2,N
1505971595.8,286046998.7,N
1505971615.7,286046995.1,N
1505971635.5,286046996.3,N
1505971655.3,286046994.4,N
1505971675.2,286046993.0,N
1505971695.0,286046990.5,N
1505971695.9,286046990.5,N
1505971715.8,286046990.7,N
1505971735.6,286046992.6,N
1505971755.4,286046992.2,N
1505971775.3,286046990.4,N
1505971795.1,286046994.9,N
1505971815.8,286046996.5,N
1505971835.7,286046995.8,N
1505971855.5,286046993.9,N
1505971875.4,286046994.2,N
1505971895.2,286046995.8,N
1505971915.0,286046996.4,N
1505971915.9,286046996.4,N
1505971935.8,286046993.7,N
1505971955.6,286046995.8,N
1505971975.5,286046998.0,N
1505971995.3,286046996.1,N
1505972015.1,286046995.4,N
1505972035.9,286046997.7,N
1505972055.7,286046997.5,N
1505972075.5,286046997.7,N
1505972095.4,286046994.9,N
1505972115.2,286046996.4,N
1505972135.1,286046995.6,N
1505972136.0,286046995.6,N
1505972155.8,286047000.9,N
1505972175.6,286046999.0,N
1505972195.5,286046999.1,N
1505972215.3,286046997.3,N
1505972235.1,286046996.7,N
1505972255.9,286046996.4,N
1505972275.7,286046992.0,Y
1505972295.6,286046999.3,P
1505972315.4,286047000.5,N
1505972335.2,286047001.0,N
1505972355.1,286047001.7,N
1505972356.0,286047001.7,N
1505972375.8,286047000.9,N
1505972395.7,286046998.7,N
1505972415.5,286047000.5,N
1505972435.3,286047001.2,N
1505972455.2,286046996.5,N
1505972475.0,286047000.5,N
1505972475.9,286047000.5,N
1505972495.8,286047003.9,N
1505972515.6,286047001.6,N
1505972535.4,286047000.6,N
1505972555.3,286046998.6,N
1505972575.1,286046998.5,N
1505972595.8,286047000.5,N
1505972615.7,286047001.7,N
1505972635.5,286047004.1,N
1505972655.4,286047001.8,N
1505972675.2,286047002.6,N
1505972695.0,286047000.1,N
1505972695.9,286047000.1,N
1505972715.8,286047002.0,N
1505972735.6,286046998.2,N
1505972755.4,286046999.4,N
1505972775.3,286046999.4,N
1505972795.1,286046998.3,N
1505972815.9,286047001.2,N
1505972835.7,286046998.9,N
1505972855.5,286046997.7,N
1505972875.4,286046997.0,N
1505972895.2,286046998.0,N
1505972915.0,286046995.4,N
1505972915.9,286046995.4,N
1505972935.8,286046997.5,N
1505972955.6,286047000.8,N
1505972975.5,286046998.9,N
1505972995.3,286047001.9,N
1505973015.1,286047005.2,N
1505973035.9,286047003.7,N
1505973055.7,286047002.8,N
1505973075.5,286047001.3,N
1505973095.4,286047001.3,N
1505973115.2,286047005.3,N
1505973135.1,286047003.7,N
1505973136.0,286047003.7,N
1505973155.8,286047001.7,N
1505973175.6,286047002.1,N
1505973195.5,286047005.5,N
1505973215.3,286047001.4,N
1505973235.2,286047003.5,N
1505973255.9,286047003.9,N
1505973275.7,286047005.9,N
1505973295.6,286047005.2,N
1505973315.4,286047003.1,N
1505973335.2,286046999.7,N
1505973355.1,286047002.3,N
1505973356.0,286047002.3,N
1505973375.8,286047002.2,N
1505973395.7,286047000.1,N
1505973415.5,286046999.7,N
1505973435.3,286046999.5,N
1505973455.2,286046997.2,N
1505973475.0,286046999.1,N
1505973475.9,286046999.1,N
1505973495.8,286046998.4,N
1505973515.6,286046996.5,N
1505973535.4,286046995.4,N
1505973555.3,286047000.5,N
1505973575.1,286047002.9,N
1505973595.8,286047003.3,N
